STARLINK-36714, 67924

Orbit data source: Space-Track

STARLINK-36714, 67924 is a payload satellite owned by SpaceX/Seattle (US) in LEO that was launched on Sun, 22 Feb 2026 UTC via an FALCON 9 launch vehicle from the Air Force Eastern Test Range (AFETR). Payload-class satellites include a variety of spacecraft equipped with specific instruments for various scientific and technological missions. These include communications satellites like Starlink; space stations such as the ISS; scientific satellites like the Hubble; Earth observation satellites from companies like Planet Labs, Umbra, and HawkEye 360; GPS; miniature CubeSats for education and research; and military/defense satellites.

Loading next visibility...
Identifier
67924, 2026-036W
Orbit
LEO
Country
Flag of USUS
Related business
Manufacturer
SpaceX/Seattle
Mission
Operational Commercial Communications
Bus & Motor
STARLINK V2MO, Unknown motor
Mass
575 kg wet, ~530 kg dry
Launch date (UTC)
2026-02-22 (4 months ago)
Launch vehicle
FALCON 9
Launch site
Air Force Eastern Test Range (AFETR)
Object type
Payload
Rocket body
Debris
Shape & HBR
Box + 2 Pan, 17.7 m
Radar Cross Section
36.964 m², Large (>1 m²)

Expand to show TLE details & history
Last TLE update: 13 hours ago

TLE from 13 hours ago
0 STARLINK-36714
1 67924U 26036W   26171.30113793  .00007211  00000-0  27118-3 0  9992
2 67924  43.0066  25.8974 0001204 292.9215  67.1509 15.27594878 19410
Epoch: 2026-06-20T07:13Z
TLE epoch observation values (Epoch: 2026-06-20T07:13:38.317Z)
Latitude
-0.00004°
Longitude
8.96997°
Altitude
482.46 km
Speed
7.626 km/s
True Right ascension
01h 43m 35s
True Declination
0° 00' 00"
Sunlit
Object was in daylight at epoch
Visualization orbit readout
Latitude
Unknown
Longitude
Unknown
Altitude
Unknown
Speed
Unknown
Apparent Right ascension
Unknown
Apparent Declination
Unknown
Sunlit
N/A
Visualization observer readout
Local Sidereal Time
07:21:00
Azimuth
Unknown
Elevation
Unknown
Doppler factor
Unknown
Orbital elements
Apogee altitude
485.775 km
Perigee altitude
484.122 km
Semi-major axis
6,863.086 km
Eccentricity
0.00012
Inclination
43.0066°
RAAN
25.8974°
Arg. of periapsis
292.9215°
True anomaly
67.16361°
Mean anomaly
67.1509°
Eccentric anomaly
67.15726°
Mean motion
3.81737 °/min
Orbital period
94.31 mins
BSTAR
0.00027118
Loading maneuver chart data...
Computing Atmospheric mass density...
Loading historical data...
Loading historical data...
Loading historical data...
Loading historical data...
Loading historical data...
Loading historical data...
Loading historical data...

Documentation

Showing up to 5 results
|